This is the latest recevied weather packets stored in our database for station/object W9KHP-1. If no packets are shown the sender has not sent any weather packets the latest 10 day(s).
| Time | Temp. | Humidity | Pressure | Rain* | Wind** | Luminosity | Snow |
|---|---|---|---|---|---|---|---|
| 1778194129 | 16.67° C | 41% | 1017 hPa | 0 mm | - | 37 W/m² | - |
| 1778193826 | 16.11° C | 41% | 1017.2 hPa | 0 mm | - | 38 W/m² | - |
| 1778193521 | 16.67° C | 41% | 1017.4 hPa | 0 mm | - | 39 W/m² | - |
| 1778193218 | 16.67° C | 39% | 1017.5 hPa | 0 mm | - | 40 W/m² | - |
| 1778192915 | 17.22° C | 39% | 1017.1 hPa | 0 mm | - | 41 W/m² | - |
| 1778192611 | 17.22° C | 42% | 1017.3 hPa | 0 mm | - | 42 W/m² | - |
| 1778192309 | 18.33° C | 42% | 1017.3 hPa | 0 mm | - | 50 W/m² | - |
| 1778192005 | 18.33° C | 37% | 1017.3 hPa | 0 mm | - | 270 W/m² | - |
| 1778191701 | 18.33° C | 38% | 1017.3 hPa | 0 mm | - | 286 W/m² | - |
| 1778191400 | 19.44° C | 41% | 1017.3 hPa | 0 mm | - | 301 W/m² | - |
| 1778191095 | 18.33° C | 42% | 1017.3 hPa | 0 mm | - | 313 W/m² | - |
| 1778190793 | 18.89° C | 38% | 1017.5 hPa | 0 mm | - | 327 W/m² | - |
| 1778190490 | 19.44° C | 39% | 1017.2 hPa | 0 mm | - | 342 W/m² | - |
| 1778190188 | 18.33° C | 38% | 1017.2 hPa | 0 mm | - | 356 W/m² | - |
| 1778189883 | 19.44° C | 37% | 1017.2 hPa | 0 mm | - | 371 W/m² | - |
| 1778189580 | 18.33° C | 40% | 1017.2 hPa | 0 mm | - | 382 W/m² | - |
| 1778189277 | 17.78° C | 39% | 1016.8 hPa | 0 mm | - | 394 W/m² | - |
| 1778188973 | 17.78° C | 41% | 1017.1 hPa | 0 mm | - | 411 W/m² | - |
| 1778188670 | 18.33° C | 39% | 1016.8 hPa | 0 mm | - | 425 W/m² | - |
| 1778188366 | 18.89° C | 38% | 1016.8 hPa | 0 mm | - | 439 W/m² | - |
| 1778188062 | 18.33° C | 41% | 1016.8 hPa | 0 mm | - | 454 W/m² | - |
| 1778187760 | 18.89° C | 38% | 1017.3 hPa | 0 mm | - | 467 W/m² | - |
| 1778187457 | 18.33° C | 39% | 1017.1 hPa | 0 mm | - | 481 W/m² | - |
| 1778187154 | 18.89° C | 38% | 1017.3 hPa | 0 mm | - | 493 W/m² | - |
| 1778186849 | 18.89° C | 37% | 1017.4 hPa | 0 mm | - | 507 W/m² | - |
* Rain latest hour (hover to see other rain measurements)
** Current wind speed in m/s (hover to see current wind gust speed)